RH
90 78 79 71 61 63 57 53 51 41 31 25 22 23 25 21 19 22 24 27 27 25 22 21 22 19 30 46 45 42 43 44 46 65 69 37 14 11 13 15 14 13 13 29 47 49 49 46 39 34 31 34 40 43 48 50 51 59 73 83 81 75 69 55 42 45 53 56 65 66 62 67 63 57 54 57 64 55 50 51 48 51 53 55 58 61 64 66
76 71 73 64 60 62 57 50 43 33 26 20 20 21 19 18 19 21 23 27 29 28 25 25 25 24 37 53 53 50 54 58 69 79 51 14 13 15 10 11 14 15 10 14 35 50 50 46 41 34 31 34 36 39 44 45 47 59 68 75 72 65 57 44 39 41 47 55 62 62 59 62 59 52 49 51 55 51 54 55 50 58 59 57 59 61 63 64
70 65 59 51 46 40 34 28 26 22 19 19 20 20 17 17 18 20 24 28 32 32 31 29 27 38 52 57 55 55 69 78 75 60 27 9 15 12 10 11 9 13 14 10 22 42 43 39 37 33 33 35 35 36 40 41 44 48 55 67 64 53 47 37 36 38 40 50 59 59 55 57 51 43 42 43 45 48 57 57 55 65 65 61 60 60 62 62
57 51 42 40 33 25 25 22 20 19 17 16 16 18 16 16 17 20 24 28 34 34 35 33 32 53 68 60 50 56 77 76 51 28 13 12 15 11 10 10 9 12 15 12 14 29 35 33 33 32 34 37 34 35 39 40 42 42 45 56 52 44 46 39 33 34 35 43 51 52 53 52 40 35 37 39 44 48 54 53 54 64 63 61 61 60 61 62
39 36 31 29 25 22 22 18 18 17 15 14 14 16 15 17 18 20 25 29 34 34 37 35 36 60 76 65 56 69 71 44 21 16 14 13 14 15 9 6 10 11 16 18 14 21 26 27 31 33 34 38 36 37 40 37 38 40 40 42 40 39 44 41 32 31 32 34 39 42 45 42 34 35 34 37 47 49 49 48 50 57 58 59 60 60 61 63
31 29 28 25 23 21 18 17 16 14 13 13 13 14 14 17 18 22 26 29 32 32 36 36 41 64 77 68 64 77 62 24 16 17 15 13 14 18 11 7 11 12 19 23 21 21 22 21 27 34 36 36 38 39 39 35 36 41 39 33 34 34 38 40 31 29 30 30 34 36 35 32 32 36 32 35 44 42 42 44 48 52 54 56 58 59 60 64
30 30 27 23 21 19 17 15 13 12 12 11 12 13 13 16 18 23 24 27 30 30 36 37 47 65 70 69 68 74 63 31 20 16 15 16 14 18 15 14 14 16 23 25 25 23 22 22 22 28 34 36 36 36 35 33 34 40 38 30 30 29 31 36 31 28 31 29 31 31 29 30 33 34 31 34 38 38 41 43 46 49 52 55 57 58 59 64
32 31 26 23 20 18 16 13 12 11 10 10 11 11 13 16 18 22 23 27 27 29 37 36 53 70 66 75 73 67 62 36 16 13 15 15 15 19 23 28 21 19 27 25 23 23 22 23 20 21 29 34 32 31 32 33 35 36 37 30 27 29 29 32 31 30 30 29 29 28 29 30 30 31 31 33 37 41 43 44 46 48 51 54 56 57 58 63
34 31 28 25 20 17 15 13 12 10 9 10 10 11 14 16 18 22 23 25 27 32 37 38 61 75 68 82 76 53 43 25 15 17 15 15 18 19 24 35 30 24 28 25 22 22 19 21 20 19 23 28 29 29 29 35 38 33 32 29 25 28 29 31 31 31 31 29 29 29 31 30 28 30 31 32 38 43 43 45 47 48 51 52 53 53 57 61
31 29 27 25 20 19 15 12 11 9 10 8 9 13 14 17 19 22 22 25 31 35 35 44 69 76 72 83 67 38 26 16 17 19 17 19 20 22 24 27 29 28 26 25 23 19 17 18 18 17 20 24 27 29 29 33 35 28 26 25 24 24 26 31 31 30 31 29 28 30 31 30 28 30 33 36 41 44 45 47 47 48 50 50 50 50 55 58
30 27 26 24 21 18 14 12 11 9 9 8 11 13 15 19 20 21 24 27 35 38 36 50 73 77 76 83 63 31 18 16 18 17 20 26 21 22 24 20 24 28 25 24 21 17 16 14 14 16 21 25 26 28 27 29 29 26 25 22 22 23 24 30 32 29 30 29 27 29 33 30 26 30 36 41 43 44 47 49 48 49 50 49 48 49 53 56
30 27 25 23 21 17 14 12 10 9 8 9 11 14 18 20 20 22 24 29 37 38 40 57 77 79 77 85 66 27 12 17 17 13 20 27 24 20 19 16 17 20 21 21 19 16 15 12 13 16 21 25 27 28 24 22 23 24 24 23 22 22 24 28 31 29 27 29 25 28 40 35 26 31 38 43 44 44 48 50 50 50 50 50 48 49 53 53
32 29 25 23 21 15 13 11 10 9 8 10 12 15 19 19 21 23 24 33 38 37 46 68 85 85 81 78 52 19 9 12 14 15 16 21 26 24 22 18 13 14 16 16 17 15 14 13 13 14 15 19 24 24 21 18 20 22 22 23 23 23 25 25 28 29 25 28 24 27 46 41 28 33 41 44 43 46 50 51 52 52 51 50 49 50 53 52
33 30 26 24 20 15 12 10 10 10 9 11 13 16 18 19 21 21 27 35 37 42 55 76 90 91 91 72 34 13 11 13 19 22 16 17 22 23 26 23 16 16 15 15 16 15 15 14 13 14 13 15 19 18 18 18 20 21 21 22 24 27 29 23 24 28 26 27 24 26 43 41 29 34 42 43 43 47 52 53 53 52 52 51 51 52 53 51
34 31 28 24 20 15 11 10 10 11 11 12 13 16 18 21 20 21 30 35 41 51 59 79 93 90 96 79 37 17 20 29 33 22 13 21 24 20 23 26 22 20 17 17 16 15 15 13 14 16 15 15 17 19 20 20 20 21 24 28 27 28 31 24 21 25 26 26 24 27 38 36 30 36 40 40 42 46 50 52 52 52 52 52 52 52 53 51
33 32 28 23 20 15 11 10 10 12 14 13 13 17 21 20 17 21 33 41 50 59 63 80 94 93 90 68 36 25 29 37 35 19 14 22 25 21 20 21 22 21 19 18 16 14 14 14 16 17 18 19 20 21 22 23 24 24 27 31 29 28 30 26 22 22 23 24 23 26 30 31 33 36 35 37 40 44 49 51 50 50 50 51 52 52 52 52
32 31 27 21 19 15 11 9 10 14 16 14 15 21 21 15 14 24 41 50 56 64 65 70 84 93 77 46 32 33 30 29 26 20 20 18 19 22 20 18 19 19 19 17 15 14 14 16 18 19 20 22 20 20 24 28 30 28 28 29 27 27 29 27 24 21 20 23 23 24 25 28 33 34 32 34 37 42 48 50 49 48 48 49 50 51 51 53
31 29 25 20 17 15 12 9 10 15 18 18 21 21 17 13 15 28 48 56 59 68 69 70 77 69 50 43 44 37 28 23 20 19 19 17 16 19 20 17 15 16 18 18 17 16 17 17 19 23 24 23 21 21 27 28 27 29 29 29 26 25 27 27 25 22 21 23 23 25 25 26 32 33 31 33 35 41 46 47 47 46 46 48 49 50 50 51
32 27 24 21 18 15 12 9 10 16 23 25 23 18 15 15 18 36 54 48 41 45 45 62 78 50 27 38 38 25 21 17 15 15 15 18 17 18 20 16 14 16 19 21 21 18 19 21 23 27 27 25 23 21 23 22 22 26 26 26 26 24 24 23 22 20 20 24 24 26 26 25 32 34 31 32 34 38 43 44 45 45 45 47 49 49 49 51
35 27 24 22 19 16 12 10 11 18 27 31 26 18 18 19 21 35 43 28 19 21 16 28 49 39 27 30 22 15 15 12 15 15 13 17 17 17 18 14 14 18 19 22 22 19 19 25 28 28 26 24 22 19 18 19 20 22 22 24 24 23 22 19 18 18 18 23 25 25 24 24 32 35 31 32 33 36 41 43 44 45 45 47 49 49 48 49
37 29 25 23 19 14 12 11 13 21 30 33 29 21 20 22 24 27 25 20 16 18 16 15 19 22 22 20 15 14 13 13 15 13 14 16 15 17 16 15 17 20 20 20 20 19 20 27 28 24 23 21 19 18 17 17 18 19 21 23 23 23 21 16 16 15 16 22 24 24 24 25 31 34 31 32 34 36 38 39 41 43 44 46 49 49 48 47
37 31 25 22 19 13 14 14 17 25 29 32 32 24 20 21 22 20 19 24 22 16 18 18 15 17 16 15 14 14 16 17 14 12 14 15 15 17 16 16 18 19 19 18 21 23 25 27 24 21 22 20 18 17 16 17 17 18 19 21 23 22 19 17 15 14 15 19 23 24 24 25 30 33 31 32 34 34 34 35 38 40 42 46 49 48 48 47
37 32 24 22 20 14 15 17 18 26 29 35 39 28 22 21 18 18 20 26 25 19 19 19 19 19 17 17 15 15 18 18 14 13 12 14 16 16 15 16 18 19 19 19 22 27 28 25 20 20 21 20 19 17 17 17 17 18 18 20 21 19 19 20 16 14 14 16 19 23 24 24 28 33 33 31 32 33 33 32 34 36 39 44 47 46 46 47
36 33 27 23 22 19 19 17 18 27 31 35 34 24 22 23 17 17 23 28 28 22 20 20 19 20 19 18 15 16 19 16 14 13 11 15 16 13 15 15 17 21 21 20 20 24 26 22 18 20 21 21 21 19 18 19 18 18 17 18 19 17 18 19 17 14 13 13 16 20 26 26 27 35 37 32 32 32 32 33 34 35 37 40 44 44 45 46
34 35 30 24 27 25 20 18 21 31 38 34 26 22 24 22 17 18 24 32 35 28 22 21 20 18 18 17 16 17 18 15 12 11 11 14 14 13 14 13 16 23 24 22 21 23 23 20 18 20 21 21 22 21 19 18 19 19 16 16 16 15 16 17 16 15 15 18 16 18 30 32 26 33 38 35 35 35 34 35 36 36 37 40 43 44 44 44
32 34 32 28 30 28 24 24 27 36 43 35 23 21 25 22 16 17 26 41 45 31 22 23 21 18 15 15 17 18 18 16 10 9 10 12 13 12 12 13 16 21 23 22 22 23 21 19 19 20 21 21 22 23 20 18 20 20 16 14 14 14 15 17 16 16 20 22 17 16 28 34 28 30 37 36 36 37 35 35 36 36 39 41 42 44 44 44
28 29 32 30 26 34 42 37 35 43 43 32 22 22 25 22 15 18 32 51 50 28 18 20 18 15 13 11 14 17 17 13 9 8 8 10 13 12 12 14 16 18 19 21 26 26 21 22 21 20 21 21 22 23 20 19 21 21 15 12 14 14 14 16 15 17 20 19 17 16 20 29 29 25 31 36 36 37 36 35 37 38 40 41 42 43 44 44
25 25 33 31 24 35 45 41 46 49 37 26 23 25 28 21 16 24 39 46 36 19 16 18 14 12 12 10 13 16 14 10 11 11 7 8 13 13 14 14 15 17 16 21 30 26 21 24 23 20 21 22 21 21 18 18 21 20 15 13 14 14 14 16 16 17 17 16 21 20 16 27 34 26 24 33 38 38 38 36 37 40 40 40 42 43 43 43
23 25 33 34 27 29 35 41 49 42 26 23 28 29 27 18 20 39 49 41 25 15 16 16 12 13 12 10 13 14 12 11 11 10 8 10 12 13 14 13 13 16 15 19 25 23 20 21 21 20 21 21 19 18 17 18 19 17 14 14 13 13 14 15 16 17 16 19 24 21 16 23 35 32 23 29 38 38 37 36 35 39 40 40 41 42 43 43
23 26 32 36 33 31 35 38 35 28 23 28 34 30 23 21 35 55 55 39 24 16 16 15 14 15 14 13 14 13 14 14 12 11 11 11 13 13 12 11 11 13 14 16 19 20 18 17 19 19 19 18 16 16 16 16 16 15 14 15 15 15 16 16 18 18 18 22 21 17 16 16 27 36 28 23 29 33 35 36 36 37 39 40 40 40 41 43
24 27 30 36 37 40 49 42 26 24 27 33 37 28 21 28 45 57 46 27 21 19 18 18 16 15 15 15 16 14 15 15 14 17 18 14 15 16 14 13 13 14 16 16 17 18 17 17 19 18 16 16 14 14 15 15 14 15 15 16 18 19 17 17 19 20 22 28 23 16 15 11 20 35 31 20 19 25 31 34 35 37 38 39 40 39 40 41
23 29 31 32 35 39 46 41 26 25 29 35 34 24 26 39 47 50 36 21 24 25 21 20 18 16 16 15 17 16 16 17 16 21 24 20 19 19 18 17 16 17 19 18 17 17 17 17 16 16 16 16 15 15 16 15 15 15 16 18 22 23 22 22 24 23 25 31 26 16 13 13 22 31 28 20 17 21 28 30 31 35 37 39 39 39 39 40
23 32 31 27 32 32 32 33 27 26 31 34 29 24 34 51 50 40 30 26 29 24 19 20 18 17 17 16 17 17 16 18 18 22 24 23 23 21 18 16 14 17 20 19 18 18 17 16 13 14 15 15 15 16 17 18 17 16 16 19 23 24 24 27 29 24 22 27 22 11 12 18 22 22 18 16 15 19 26 28 29 32 35 38 39 38 39 40
23 35 34 25 28 29 28 31 26 27 33 30 27 31 40 51 47 33 28 29 25 20 18 19 18 18 17 17 18 18 19 20 20 23 25 24 27 29 25 19 13 13 16 17 17 17 19 19 15 13 13 14 14 13 14 16 15 15 14 15 19 22 25 29 28 23 24 29 21 10 14 20 19 20 18 14 12 15 24 28 29 30 32 35 37 38 39 41
25 36 39 30 28 27 27 31 24 22 29 29 33 43 43 44 42 32 28 25 19 19 19 17 19 20 19 19 18 17 21 23 21 24 27 26 28 34 35 31 24 22 23 24 21 16 17 18 13 11 11 11 13 12 11 13 15 13 12 13 17 21 25 27 28 27 26 26 21 16 19 20 19 22 18 13 12 13 20 29 30 31 32 34 38 39 39 42
28 36 39 34 31 29 28 32 27 19 24 32 46 55 45 37 35 28 23 21 18 19 20 20 22 23 24 23 20 19 20 22 25 27 28 27 28 33 38 37 34 35 37 40 37 25 18 17 11 11 12 9 11 12 9 12 16 15 13 14 15 14 15 20 26 28 23 21 24 22 21 18 14 13 11 9 12 14 21 32 33 32 34 36 39 40 38 40
43 48 49 42 35 32 28 29 28 22 26 38 53 58 42 28 25 21 18 18 17 17 22 27 26 24 28 27 24 23 23 25 28 30 29 30 31 36 41 39 35 35 36 41 44 34 28 27 16 11 13 10 9 11 9 10 13 15 15 13 12 11 11 18 27 28 21 22 26 21 17 19 17 16 16 10 8 12 20 33 35 32 36 38 38 40 38 39
58 60 59 47 35 33 27 24 26 26 31 42 55 56 38 23 19 17 16 17 16 18 23 28 26 25 28 30 27 24 27 33 34 32 32 31 30 35 45 43 35 34 33 34 41 38 36 39 25 13 14 12 9 11 12 11 9 11 13 10 13 16 14 18 25 26 22 22 25 21 17 20 20 20 19 10 7 9 13 30 38 34 36 38 37 39 39 38
63 66 61 43 33 35 28 22 25 28 33 44 56 50 29 19 19 17 16 17 17 20 25 25 25 27 28 28 27 25 29 36 36 34 34 32 31 35 42 43 37 36 33 31 38 38 39 44 34 18 13 12 11 13 14 13 10 10 10 10 13 16 15 17 17 21 27 27 24 21 20 21 20 18 14 8 8 8 7 23 38 37 36 37 36 37 38 38
71 74 62 39 36 40 27 21 26 30 38 47 49 37 22 21 22 16 16 19 19 21 24 24 25 29 29 26 25 27 32 35 37 38 34 34 39 41 41 41 40 39 34 30 33 38 44 50 47 33 21 17 16 14 14 14 12 12 11 11 13 12 14 16 13 18 31 36 32 24 23 26 21 12 10 9 8 7 6 15 32 37 35 34 35 35 37 37
79 73 59 39 40 40 27 26 30 31 38 44 37 25 23 27 24 16 17 20 20 20 22 25 26 27 29 30 30 30 32 38 44 44 39 40 47 48 43 40 41 40 36 34 34 40 50 57 61 54 38 27 19 12 11 12 11 12 12 12 12 12 14 16 18 17 19 30 40 33 27 30 24 12 9 10 8 7 7 8 23 36 34 33 34 33 35 37
75 67 54 40 44 41 32 37 40 34 35 37 31 24 25 26 22 19 20 21 22 21 21 24 26 27 31 33 33 31 31 40 51 52 47 46 48 48 44 39 40 38 36 37 35 37 47 57 66 64 47 32 22 14 11 11 10 11 11 11 10 12 13 14 22 21 10 17 31 29 23 27 29 20 11 9 8 7 7 5 16 32 34 32 33 31 34 36
73 70 55 42 44 40 40 51 54 49 44 37 31 27 25 25 24 25 25 23 24 24 24 27 28 30 32 31 31 30 31 42 56 56 51 52 51 47 42 39 40 38 36 39 38 37 45 54 61 63 51 34 23 18 14 11 11 11 12 12 9 10 11 12 22 25 15 13 17 18 19 22 31 32 20 15 12 7 7 7 14 29 33 31 31 31 33 35
79 78 60 47 46 42 48 61 64 63 56 46 39 32 28 27 27 31 31 28 28 29 31 31 31 32 32 30 31 30 34 50 60 53 52 58 54 45 41 40 42 40 37 38 39 40 47 51 56 68 66 42 25 24 21 15 12 11 12 12 9 10 11 11 20 22 16 16 15 18 23 24 34 38 25 18 16 8 9 10 15 27 32 29 30 31 32 35
86 80 61 48 47 47 52 57 62 68 63 57 51 40 35 33 29 31 33 29 27 29 33 34 32 34 32 31 33 30 33 49 59 56 56 57 52 45 43 42 42 41 39 37 37 39 45 47 52 72 79 58 42 44 39 29 22 16 11 11 10 11 9 11 20 20 19 24 19 16 22 25 29 30 19 15 14 9 9 13 18 25 28 28 30 30 32 35
81 78 69 60 54 54 57 53 56 70 70 65 60 47 42 42 34 29 31 31 29 28 31 32 31 34 36 36 38 35 32 39 47 54 57 56 55 49 44 44 44 42 41 40 38 38 44 48 49 60 69 61 54 52 44 37 36 28 16 11 11 11 8 13 22 23 27 33 24 17 20 20 22 25 19 15 13 11 14 18 22 27 27 27 29 30 32 34
76 79 76 77 74 68 68 62 62 74 71 65 65 55 49 49 43 37 35 34 34 31 34 36 34 38 41 40 41 41 38 37 40 49 56 57 55 50 46 47 45 44 44 40 37 41 51 55 50 50 52 47 41 38 33 33 36 33 24 14 11 11 10 11 16 22 32 33 23 23 26 21 20 25 22 18 18 24 29 28 26 27 27 27 28 31 33 33
76 76 66 72 85 84 84 78 74 74 67 64 69 62 54 55 56 54 48 40 36 35 41 47 43 41 43 41 44 50 49 46 48 54 58 59 57 59 63 57 47 46 46 40 35 40 54 58 47 44 46 40 34 32 31 31 30 29 25 16 10 12 12 11 13 21 31 28 20 28 34 27 21 21 21 22 25 30 35 35 30 27 27 27 28 31 33 31
76 78 66 66 80 86 85 79 74 72 66 68 75 66 58 64 64 59 55 50 48 42 43 51 49 44 44 43 47 53 53 55 60 58 57 59 59 68 80 75 62 53 47 45 41 37 51 61 50 44 47 41 34 32 30 31 30 27 24 16 10 12 11 10 12 18 26 26 23 32 39 29 19 17 20 26 30 31 34 37 34 29 29 29 29 31 32 31
84 88 83 81 84 81 79 75 72 76 72 71 77 68 61 68 68 61 56 56 59 53 45 50 52 47 45 46 50 53 50 53 60 54 49 54 59 72 87 85 75 66 55 50 45 39 50 61 50 46 50 42 36 37 35 33 32 28 26 20 12 10 11 11 12 16 21 21 24 35 40 31 24 23 25 28 31 31 32 35 35 32 30 29 28 29 29 30
84 82 84 96 94 81 79 77 73 81 83 76 74 71 68 69 66 63 60 52 53 56 51 49 51 50 50 51 53 54 47 44 48 42 38 41 46 60 77 73 64 67 66 58 52 46 51 59 53 49 54 48 37 37 39 38 36 31 29 26 18 12 14 11 8 14 19 18 28 42 40 30 26 27 27 28 29 29 28 29 32 33 32 30 28 28 29 29
86 83 83 97 98 83 81 82 76 82 85 74 67 69 70 67 61 67 74 59 48 52 50 45 50 56 60 61 56 50 45 40 40 37 33 33 31 37 51 54 50 56 62 62 60 51 48 57 58 53 60 55 36 37 48 48 44 37 32 33 28 19 19 17 13 24 33 28 31 39 36 31 29 25 24 25 25 26 30 29 29 32 33 32 32 32 31 30
Wind_Speed
24 25 25 27 28 27 28 29 29 29 30 32 31 30 30 29 27 25 25 24 23 21 20 21 22 22 20 18 16 15 14 15 16 10 13 28 31 23 15 8 9 18 20 12 12 14 12 12 13 14 11 8 5 5 8 9 6 3 3 4 4 3 3 3 3 5 8 6 8 8 9 9 6 6 4 4 9 12 13 7 8 9 9 15 22 32 35 35
26 26 26 28 29 29 29 30 31 31 33 33 31 31 32 30 28 26 26 24 23 21 21 22 22 22 19 16 14 11 12 15 14 14 25 35 32 26 24 20 15 16 24 22 18 17 12 9 11 12 7 4 5 6 7 7 7 6 3 4 5 5 5 4 4 7 10 7 10 11 11 12 10 10 8 8 14 13 11 9 11 13 13 17 25 32 33 34
27 28 29 30 32 33 33 34 34 34 35 34 32 33 32 30 28 27 25 24 22 21 21 22 23 20 17 15 11 7 9 11 8 15 22 21 24 29 26 25 23 20 24 28 25 21 16 14 14 11 6 5 5 6 7 6 7 7 4 4 7 8 6 4 4 6 11 12 12 11 10 11 12 11 10 11 15 14 12 11 13 15 17 19 21 27 31 32
30 31 32 33 35 36 36 36 36 36 36 34 34 34 32 31 29 27 25 23 22 22 22 23 22 18 14 12 6 5 6 6 5 10 8 7 9 20 26 27 26 24 23 25 26 23 18 16 14 9 6 5 5 6 7 8 5 4 6 7 9 7 6 7 6 7 13 16 14 13 12 12 12 10 10 12 12 11 12 15 17 20 22 22 20 24 28 27
33 34 36 36 37 37 37 37 37 37 36 36 35 35 33 32 30 28 25 23 22 22 23 23 20 15 12 7 1 2 3 3 4 5 1 8 7 11 25 28 27 27 23 21 22 22 16 10 10 8 6 5 6 6 9 11 7 4 8 12 10 5 5 7 7 7 11 13 12 15 14 12 12 11 10 13 11 8 12 16 19 24 24 24 23 23 23 23
36 37 37 38 38 38 38 38 38 37 37 36 36 36 35 33 30 28 24 22 23 23 23 21 18 13 8 2 3 0 1 2 6 4 2 7 10 4 23 30 30 28 25 21 18 17 13 8 8 8 6 5 8 9 9 11 10 7 8 11 12 8 7 5 6 7 8 9 8 9 9 10 13 11 11 12 8 8 14 17 20 23 24 26 26 23 22 21
37 38 38 39 39 39 39 39 39 38 37 37 37 37 36 34 30 28 25 23 24 24 24 19 15 10 3 3 3 0 0 8 15 10 8 5 11 2 20 33 32 29 26 22 15 12 11 9 9 8 7 6 9 11 10 9 11 10 9 10 11 12 11 7 8 8 7 7 7 6 6 10 12 9 10 10 7 12 16 19 20 21 23 25 23 22 22 21
39 40 40 40 40 40 40 40 40 39 38 37 38 38 37 34 31 29 26 25 25 24 22 15 11 8 1 4 2 0 2 13 18 11 11 15 12 2 21 32 32 31 28 24 18 13 11 11 11 8 8 8 7 10 10 9 10 11 12 12 9 11 12 9 8 8 8 8 7 6 8 11 10 8 10 10 11 15 17 19 20 20 22 22 21 21 20 20
41 42 42 42 42 42 41 41 40 39 39 38 39 38 37 34 31 30 28 29 27 22 19 11 8 5 3 4 1 2 7 12 11 8 10 13 10 6 23 30 32 32 26 23 21 15 11 10 12 9 7 9 9 9 9 8 8 10 13 13 9 10 10 9 8 10 10 7 7 8 8 13 13 9 9 10 14 18 19 20 20 20 21 20 20 20 19 20
41 42 42 43 43 42 42 42 40 40 39 39 39 38 36 34 32 31 31 30 24 18 14 6 4 1 4 3 2 3 6 3 7 10 5 9 6 12 26 31 34 31 21 19 19 15 11 9 11 9 7 7 9 11 10 9 8 8 11 12 13 11 8 10 11 11 10 7 9 8 6 13 16 10 6 10 17 19 20 20 20 21 20 19 19 18 18 20
40 41 41 42 42 42 42 41 41 40 40 40 39 37 35 33 33 33 32 28 21 14 9 3 3 3 5 2 2 6 6 3 5 14 10 6 12 18 25 31 35 31 21 16 17 20 17 13 10 6 6 6 8 9 9 11 10 10 11 10 12 12 8 9 11 11 8 6 9 7 4 9 13 8 8 15 19 20 21 20 20 20 18 18 19 16 15 17
41 41 41 42 42 42 41 41 41 39 39 39 37 36 34 33 34 34 31 25 17 11 6 3 3 5 5 1 7 15 9 5 5 12 15 7 15 18 22 28 33 35 27 15 17 25 23 20 13 7 6 4 5 5 6 9 9 10 10 8 9 10 10 10 11 11 9 6 8 8 3 8 11 9 14 19 19 20 21 20 19 18 16 16 17 13 11 16
42 42 43 43 43 41 41 40 40 39 38 37 35 35 34 33 33 32 30 23 13 7 3 3 5 7 5 1 14 24 19 16 18 22 19 9 12 15 19 26 30 33 33 23 22 27 27 24 14 8 8 4 4 3 5 7 5 8 8 6 7 7 9 11 11 11 12 8 9 9 3 7 9 13 19 20 20 21 20 19 18 16 15 15 15 12 11 15
44 44 44 44 44 42 41 40 40 40 37 35 34 34 35 33 30 29 27 17 6 3 2 4 7 8 5 6 18 25 24 26 27 25 19 12 11 13 16 24 28 29 32 30 26 26 28 24 12 7 8 7 6 6 8 6 3 4 4 4 5 4 6 10 12 13 12 8 10 10 5 6 8 17 22 20 22 23 20 19 19 16 15 14 14 13 12 13
45 45 45 45 44 42 41 40 40 39 35 34 34 34 34 30 25 25 21 10 2 1 2 6 10 8 1 10 18 19 15 16 22 25 22 16 10 9 15 23 27 28 28 29 25 22 24 20 9 6 7 8 8 8 7 5 3 2 2 4 4 4 5 7 12 15 13 8 10 11 6 4 10 20 22 20 22 23 20 19 19 18 18 17 14 14 13 12
45 46 46 45 45 43 41 40 39 38 34 32 33 33 31 25 22 22 14 5 3 1 4 7 11 8 2 6 10 10 6 6 13 16 17 19 15 11 17 23 23 24 24 24 23 19 19 14 6 7 7 7 7 6 4 4 4 2 3 5 4 4 4 4 6 12 15 9 10 13 7 3 11 20 20 20 21 20 19 19 20 19 18 18 15 14 14 12
46 47 46 45 45 44 42 40 38 37 33 31 32 32 26 20 20 17 7 2 5 1 5 4 8 7 5 9 9 7 4 6 10 9 10 19 23 18 16 15 14 17 18 18 19 14 11 9 5 6 7 7 5 4 4 6 6 4 3 4 5 5 5 4 3 7 12 10 10 14 10 3 14 22 20 21 21 20 19 19 20 19 17 17 15 15 15 14
47 47 46 45 44 44 42 39 37 35 32 31 30 28 21 19 20 12 1 2 5 2 4 2 4 4 4 7 6 8 9 14 19 19 15 16 24 25 18 11 10 13 12 10 12 10 6 5 5 5 5 7 6 6 7 7 6 5 4 3 5 5 5 6 5 5 9 12 10 11 12 7 17 24 21 22 23 21 20 20 19 19 18 17 15 17 16 16
47 47 46 45 44 43 40 37 35 31 30 29 27 24 17 15 14 4 1 4 5 3 4 4 4 2 6 7 7 13 18 20 23 22 16 13 20 23 19 13 10 12 9 5 8 9 6 3 5 6 8 10 10 9 8 5 4 6 6 4 5 5 5 7 8 7 8 11 10 11 13 10 18 23 20 21 22 20 20 18 17 17 17 17 16 16 17 17
47 47 47 46 44 42 39 37 32 28 27 27 27 21 12 12 9 1 3 8 8 8 11 11 9 9 13 14 14 15 19 18 13 12 15 12 15 14 11 9 7 9 9 8 8 7 6 5 8 11 11 11 12 10 7 5 5 6 5 5 7 6 7 9 11 9 7 9 11 13 15 12 19 23 21 21 20 18 20 19 18 18 17 17 18 18 18 18
48 48 47 45 43 40 38 35 28 24 24 25 23 13 6 10 9 8 11 13 14 10 16 19 16 18 18 17 19 14 12 11 8 12 19 15 11 10 6 7 8 9 11 10 7 5 5 7 13 14 10 9 10 10 7 6 8 8 6 6 7 6 8 11 13 10 8 8 10 14 15 12 19 23 21 22 21 19 21 21 21 22 19 17 19 20 19 17
48 48 47 44 42 39 37 33 24 21 25 24 17 8 6 11 13 17 13 13 18 9 12 19 16 17 19 23 28 16 6 9 13 15 14 8 8 10 7 8 9 8 10 11 6 5 7 12 17 13 7 7 8 10 10 10 10 8 6 6 6 6 6 9 12 9 7 7 8 14 15 11 17 22 21 23 22 20 22 24 23 23 21 18 19 20 19 17
49 48 46 43 41 37 35 29 19 20 27 24 13 8 13 19 22 25 13 6 17 12 6 11 11 12 14 18 22 14 8 10 10 14 11 4 7 11 9 9 10 9 10 13 10 8 9 12 14 10 7 10 10 11 13 11 9 8 7 6 6 7 6 7 10 7 5 6 7 14 14 9 13 16 18 23 23 20 23 25 24 24 23 22 22 20 20 20
49 50 46 43 40 36 32 23 16 22 29 21 11 14 22 25 26 25 11 3 9 11 4 5 5 6 9 10 10 8 8 10 9 12 11 5 6 9 10 9 10 9 10 15 15 13 11 6 9 12 11 12 11 11 12 9 8 10 11 9 8 10 11 10 9 4 4 6 7 12 10 6 10 15 15 18 20 19 21 22 19 18 20 20 21 20 20 21
51 51 47 43 37 34 29 16 15 26 27 15 13 23 27 27 28 22 8 2 5 7 4 2 2 2 4 7 7 6 7 8 9 12 8 5 5 7 8 7 8 10 11 16 15 13 13 6 11 16 14 13 13 11 12 11 7 9 14 14 13 13 13 13 10 5 4 6 6 10 9 5 8 16 18 16 16 17 16 17 18 16 16 16 18 18 19 20
54 52 49 42 34 34 23 8 16 28 20 9 17 30 29 28 31 21 5 2 4 5 2 2 1 4 7 3 3 3 4 6 10 16 14 9 8 5 7 5 5 9 10 12 10 7 10 8 10 14 15 15 14 11 13 12 7 8 13 16 16 14 14 14 8 3 4 4 6 8 10 6 5 12 19 19 19 19 16 16 18 17 15 16 16 17 18 18
55 53 50 39 31 29 15 5 19 22 9 10 24 32 30 31 33 19 3 2 4 4 3 3 3 7 13 13 5 5 3 5 6 13 16 15 10 5 8 8 5 7 7 7 7 6 9 12 11 13 15 14 13 11 13 14 9 7 10 13 15 15 16 16 9 4 5 4 5 5 7 6 5 9 17 22 22 20 17 16 16 16 17 18 18 19 20 20
54 53 49 38 27 21 12 12 18 14 10 20 29 31 32 33 27 9 3 1 3 3 2 3 7 9 14 18 6 5 4 6 2 5 11 18 12 4 8 10 8 7 8 9 8 7 10 15 14 14 13 11 12 13 13 14 11 6 7 11 14 15 16 14 8 5 5 4 6 6 4 5 5 7 13 20 21 19 18 19 17 17 19 19 19 20 20 20
54 53 47 37 23 13 13 16 14 12 18 26 28 32 35 28 14 3 4 1 2 5 3 4 9 10 14 18 7 1 8 7 6 6 7 14 13 7 6 8 9 7 8 12 9 5 7 13 15 13 11 10 11 13 12 14 12 7 7 9 10 13 15 12 8 6 5 5 8 8 4 4 5 5 9 15 17 17 18 19 18 19 20 20 20 20 19 18
55 52 43 33 21 14 16 19 16 17 23 25 27 34 30 14 3 4 2 1 2 7 5 5 9 11 15 18 11 9 10 7 10 12 4 6 9 9 5 4 8 7 7 10 10 8 6 8 12 13 11 9 9 12 13 14 13 9 8 8 7 8 9 8 5 5 5 6 10 11 7 6 5 5 7 11 15 19 18 16 16 18 20 20 19 19 18 17
55 49 37 27 19 15 13 14 18 22 24 26 30 28 16 5 4 3 1 2 3 6 6 7 11 13 16 16 11 12 13 9 13 15 9 4 6 7 4 4 7 6 5 6 7 10 10 9 8 10 13 11 8 10 13 15 14 10 7 8 7 5 4 5 3 4 6 6 8 9 8 7 6 5 5 8 14 21 21 19 20 21 21 20 18 17 18 17
54 46 31 20 16 15 11 12 21 24 24 27 25 13 5 4 3 1 2 4 4 5 7 10 12 13 15 12 8 12 12 9 12 13 11 8 3 7 8 6 4 6 8 6 4 5 10 13 8 7 12 15 11 8 9 12 13 10 7 6 6 4 4 5 4 4 5 6 7 7 8 6 6 6 7 8 10 15 20 22 24 24 22 20 18 18 17 16
53 41 26 16 14 16 15 16 21 21 23 24 15 4 4 4 2 1 3 3 2 5 6 9 13 13 12 9 8 11 7 6 13 14 12 12 7 3 9 9 8 8 7 5 4 4 7 10 12 11 9 12 14 9 6 9 10 10 9 7 6 6 6 6 5 3 4 6 8 7 7 5 5 6 9 11 10 11 16 19 24 25 24 22 21 19 17 17
50 39 26 16 13 14 14 16 17 16 19 17 7 4 4 2 1 4 4 1 2 6 7 8 12 10 8 6 8 11 6 6 14 14 11 12 10 6 4 6 7 6 5 4 5 6 7 7 10 13 6 7 14 12 8 9 9 11 10 8 7 6 6 5 4 5 4 4 6 4 5 5 5 5 8 10 10 9 14 17 21 24 24 23 21 19 18 18
48 39 26 14 10 10 12 16 16 12 10 8 5 3 3 1 2 3 3 3 3 7 8 9 10 7 7 7 7 11 7 6 13 12 9 10 7 7 8 6 6 7 4 2 2 4 9 8 5 10 8 7 13 12 10 10 9 10 9 7 8 6 5 3 3 5 4 3 4 4 5 5 5 5 5 5 7 6 13 16 19 19 19 18 16 17 17 17
47 38 23 12 13 17 20 21 20 14 6 5 4 2 1 2 1 1 3 4 4 7 8 7 7 5 6 6 6 11 9 6 11 9 7 9 6 7 9 8 12 15 10 4 3 2 6 8 4 8 13 14 13 11 12 11 7 6 8 9 8 6 6 3 4 2 4 4 5 4 4 3 2 6 6 4 6 4 10 17 19 20 18 16 15 16 17 16
42 33 18 9 18 28 29 24 22 16 4 6 2 2 3 1 2 2 3 4 5 6 6 5 5 5 7 7 7 13 12 7 9 8 6 7 5 9 10 8 12 16 14 8 4 3 4 6 6 9 15 17 15 12 12 13 9 7 9 9 5 4 4 4 2 2 3 5 4 4 6 4 1 5 6 6 8 7 7 15 19 21 19 17 16 17 18 18
33 25 12 8 23 34 32 25 20 11 2 5 1 4 3 1 2 3 2 3 6 5 4 2 3 4 6 7 7 12 13 8 8 8 5 5 4 9 11 7 10 15 19 13 3 3 6 5 7 10 13 13 14 13 11 12 13 10 9 9 8 5 6 5 4 4 4 4 3 4 6 5 4 5 4 6 12 11 9 13 18 20 19 18 18 18 20 20
24 13 4 13 30 37 34 24 13 3 4 2 2 3 2 1 2 4 2 4 5 4 3 2 2 3 4 6 8 10 10 9 8 7 4 4 4 8 12 9 11 17 21 16 6 5 6 3 5 8 8 7 9 10 9 11 13 9 7 8 8 6 6 5 3 4 5 4 3 3 4 5 5 6 8 12 14 14 11 11 15 20 21 19 19 18 19 18
16 4 2 17 35 40 35 20 4 4 2 1 3 2 3 2 4 6 5 6 4 2 3 3 3 3 3 6 8 8 8 8 9 7 5 7 6 5 12 12 13 18 19 13 8 8 5 2 4 7 7 5 5 8 12 12 9 8 7 9 8 4 3 4 2 3 5 3 4 4 4 6 6 7 13 17 15 14 14 12 14 19 22 21 20 19 18 17
9 1 3 20 37 39 28 10 3 4 1 1 1 2 4 4 5 6 6 8 5 2 2 4 5 4 3 5 7 7 7 6 7 6 5 6 6 4 10 15 14 16 16 10 7 8 6 3 4 6 6 5 6 7 13 15 10 8 7 8 10 6 5 6 5 3 4 3 4 5 4 7 7 7 12 16 15 15 16 14 13 17 22 22 21 20 19 18
4 2 9 20 35 35 17 5 4 5 1 4 6 5 7 6 5 6 6 7 4 1 2 4 5 5 4 5 6 7 7 4 4 5 5 7 7 7 11 16 15 14 13 8 7 9 7 3 4 6 5 9 14 12 10 14 13 10 7 6 9 7 6 8 7 5 6 5 4 4 3 6 7 7 10 14 15 16 17 15 13 16 20 21 21 20 20 19
2 6 12 19 32 27 8 5 6 5 3 7 8 8 9 7 7 8 7 6 4 3 3 4 5 6 4 4 5 7 7 3 2 3 6 8 7 9 12 15 16 14 10 6 6 9 8 3 3 6 7 9 13 11 9 10 12 10 7 6 8 10 9 8 6 5 6 7 5 3 3 7 8 5 7 12 16 16 16 13 14 16 17 19 21 20 19 19
2 6 8 17 30 21 5 5 6 4 5 9 9 10 10 8 9 10 10 7 4 3 3 3 4 4 3 4 5 7 5 2 1 3 5 6 6 9 11 14 16 12 6 6 7 6 6 4 4 6 5 4 6 5 5 6 8 8 8 10 11 14 12 6 4 5 5 8 8 5 4 7 7 5 4 8 14 14 11 11 14 17 17 18 19 18 18 18
3 3 4 12 22 14 6 4 4 3 7 10 10 10 9 8 8 9 11 7 4 3 2 2 3 4 4 3 5 7 4 4 2 2 2 5 7 7 10 14 15 12 9 9 9 6 4 3 2 3 3 3 5 4 2 3 3 5 10 15 14 13 14 7 4 5 5 7 7 6 6 8 8 8 9 4 10 12 10 10 12 17 19 19 17 15 16 16
2 2 3 7 9 6 4 4 5 4 6 8 7 7 8 8 7 8 9 7 7 6 2 1 3 4 4 4 4 8 7 2 2 2 2 5 6 5 9 14 14 12 10 9 10 5 3 4 4 6 7 6 7 10 10 8 7 9 11 16 15 13 14 10 5 5 6 5 6 8 9 9 8 8 9 4 6 9 8 10 11 14 18 19 18 16 15 15
1 2 3 4 4 4 5 5 6 5 5 6 5 4 8 9 7 8 7 6 9 8 2 2 4 4 5 6 4 4 7 8 6 3 3 6 6 6 11 13 11 10 11 11 10 6 2 4 7 9 11 12 15 19 19 14 11 13 13 15 18 14 14 12 7 7 7 6 5 9 10 10 8 7 8 3 6 8 8 10 12 13 16 17 17 18 19 17
2 1 2 3 2 4 5 6 8 8 7 7 4 4 8 9 8 8 7 7 10 8 4 2 4 6 7 7 4 2 5 7 5 4 4 5 6 7 8 9 8 9 14 10 7 5 2 4 7 9 16 20 19 19 17 14 13 13 13 15 21 17 16 14 9 8 9 8 8 9 9 11 8 7 9 7 5 8 8 9 11 13 14 16 17 19 20 19
2 1 2 4 2 4 6 8 10 9 8 7 4 4 7 8 8 7 6 7 8 6 5 5 6 10 10 7 4 2 4 5 4 5 5 4 6 6 5 6 4 8 13 9 7 5 2 4 7 12 18 20 18 14 11 10 9 9 10 11 21 20 17 15 10 8 9 8 9 9 9 11 9 7 8 7 4 4 5 4 8 13 14 15 17 19 19 19
1 0 1 3 3 4 5 6 7 6 5 5 3 3 5 6 8 8 7 6 7 6 6 7 8 9 8 7 5 3 4 5 6 8 7 6 5 2 1 3 5 8 11 8 7 5 2 4 9 11 12 13 12 11 11 12 10 9 9 5 15 20 18 15 11 8 7 7 7 8 9 9 6 2 2 1 3 6 7 5 6 12 14 16 18 19 19 19
2 2 1 2 3 4 3 3 4 4 4 3 2 3 6 6 7 9 8 6 6 7 8 9 9 6 4 5 5 5 5 6 9 11 10 10 7 2 2 2 5 8 9 7 7 6 3 4 7 8 7 8 9 13 16 16 13 7 6 8 6 15 14 11 10 7 4 5 4 6 6 7 4 3 7 7 8 8 8 6 5 7 12 16 18 17 16 17
2 2 0 0 2 3 3 3 3 3 2 2 5 6 6 8 8 7 5 5 6 8 10 11 8 4 3 5 5 6 6 7 10 11 10 11 10 7 6 6 8 8 6 6 7 6 4 4 5 5 5 7 9 15 16 12 7 3 6 12 7 5 7 3 3 4 4 1 4 5 6 6 4 7 10 9 9 9 7 5 5 6 8 11 13 13 15 16
Wind_Direction
354 354 353 352 351 350 349 349 348 348 350 350 349 348 347 347 347 346 344 341 338 333 327 324 323 321 315 312 310 309 315 307 299 283 242 253 252 238 228 218 188 178 180 180 168 165 167 188 199 192 186 180 197 220 211 221 219 185 173 220 241 225 223 217 198 142 153 159 155 177 169 181 213 200 203 160 197 183 147 136 121 112 106 127 136 142 148 150
355 355 352 352 351 349 348 348 348 348 349 349 348 348 348 347 346 346 343 340 339 336 331 327 324 321 315 312 309 314 320 306 294 268 256 261 260 248 233 219 213 192 184 195 188 169 169 189 193 185 185 186 198 210 205 211 212 206 179 206 234 214 217 210 173 139 150 162 162 178 178 183 207 200 200 185 179 165 138 131 125 115 111 126 136 144 150 153
356 355 353 354 354 353 352 351 350 350 349 348 348 347 347 346 346 345 343 341 339 338 334 329 326 322 316 311 311 326 317 309 292 259 268 275 258 246 233 216 214 209 192 194 191 178 180 183 182 177 180 206 212 210 207 212 214 215 196 212 238 220 237 239 172 154 154 156 163 180 185 190 211 200 192 184 168 160 149 145 138 130 133 140 145 148 152 157
357 357 357 356 355 354 353 351 351 350 349 348 347 347 346 346 346 344 343 341 338 339 335 331 328 320 317 316 312 321 306 301 270 242 278 340 268 232 220 212 204 203 198 196 193 189 191 179 175 180 185 208 217 219 222 221 209 208 206 221 238 212 234 246 188 154 149 155 165 178 189 201 214 201 185 175 166 167 161 159 153 144 146 149 150 153 155 158
0 359 359 357 355 354 352 351 350 349 348 347 347 346 345 345 345 343 342 340 339 338 335 332 328 321 320 325 346 323 317 303 270 217 336 359 323 218 203 200 194 195 194 193 193 194 204 191 175 185 199 213 210 218 228 223 215 228 226 229 240 204 215 238 189 159 156 163 165 172 187 195 198 199 187 176 173 174 165 161 154 149 152 153 153 156 158 159
2 360 358 356 355 353 351 350 349 348 347 346 345 344 344 343 343 342 342 340 339 336 334 333 326 323 323 341 111 139 197 272 290 239 229 11 16 206 193 190 186 188 186 184 185 188 205 207 187 190 198 212 212 218 229 221 215 238 245 237 238 220 224 226 181 186 174 172 173 172 182 173 180 192 184 180 176 160 156 154 152 153 154 153 154 157 161 163
1 359 357 355 354 352 350 349 348 347 346 345 344 343 342 342 342 341 341 339 337 334 331 330 324 323 349 99 124 107 58 267 273 251 235 303 360 359 185 186 181 179 181 179 179 184 196 202 199 196 197 210 215 223 234 226 220 231 248 248 234 220 225 210 179 194 178 183 197 164 146 162 179 179 171 180 165 144 145 147 150 151 151 151 155 161 163 164
360 358 356 354 352 351 350 348 347 346 345 345 343 341 341 341 341 340 339 337 334 330 326 324 322 320 122 129 150 129 224 255 264 258 253 266 297 318 168 176 177 176 180 181 183 183 188 200 204 198 202 213 215 221 228 229 230 231 240 248 234 214 217 206 180 183 185 196 205 176 153 169 182 171 175 177 150 141 140 143 147 148 151 156 161 163 161 164
358 357 355 353 351 350 349 347 346 345 345 343 341 340 340 339 340 338 337 335 331 325 322 317 312 319 154 172 239 286 245 252 284 305 273 262 272 191 163 168 175 176 180 187 189 185 185 197 205 205 211 217 219 228 226 224 233 229 236 244 236 220 209 198 185 181 192 198 202 202 175 174 181 176 183 166 145 142 140 143 148 152 157 162 166 165 162 165
357 356 354 352 350 348 347 346 345 345 344 342 340 339 338 339 338 337 336 333 329 320 317 312 289 308 153 201 206 247 255 248 20 14 299 246 226 175 167 168 174 176 180 190 192 193 196 197 201 210 231 232 223 228 224 220 235 234 240 247 238 232 212 192 193 190 194 200 202 197 162 172 179 178 178 151 144 143 141 146 151 155 162 165 168 167 164 167
356 355 353 351 349 347 346 345 345 345 343 340 339 337 337 338 337 336 335 332 328 314 304 286 260 184 174 210 181 221 249 179 79 33 12 238 199 177 173 174 176 178 182 187 198 202 203 209 207 207 228 230 229 240 237 228 241 248 249 261 247 237 228 196 196 199 190 204 204 172 135 188 185 181 164 147 147 146 145 151 156 158 163 167 171 169 164 168
357 354 352 351 349 347 346 345 345 345 343 340 337 337 337 337 336 336 335 333 326 305 280 237 217 167 164 248 226 227 236 211 227 336 334 258 206 194 183 181 181 184 185 182 205 207 207 216 214 219 231 216 225 251 257 233 235 248 247 265 261 244 237 210 198 201 191 202 192 145 125 212 192 173 155 146 147 149 150 154 158 161 161 167 173 173 167 170
357 354 352 351 349 347 347 346 346 345 342 339 336 337 337 337 337 336 334 332 323 293 246 191 186 170 152 202 240 243 256 272 281 299 298 258 226 220 195 187 187 190 192 191 204 207 211 218 214 232 254 255 242 253 275 256 236 245 238 236 250 246 238 218 199 198 195 198 175 144 162 219 184 158 151 148 150 150 153 158 160 162 162 168 174 176 174 173
356 354 352 351 349 347 347 347 346 346 342 338 337 337 337 338 337 333 332 331 316 269 209 168 159 158 168 257 264 267 277 281 282 282 269 250 242 230 208 196 190 193 197 198 205 208 212 218 217 237 258 257 264 291 293 282 261 257 255 237 219 220 242 220 199 193 195 196 167 157 200 228 172 154 155 156 156 155 158 162 162 164 165 170 174 177 179 179
355 354 352 350 349 348 348 347 347 346 343 338 338 338 338 340 336 332 336 341 340 211 151 146 160 155 222 269 275 289 296 280 270 263 250 242 235 214 207 199 193 196 198 201 206 208 212 213 213 235 253 251 253 272 278 280 281 254 253 268 225 198 245 232 202 191 192 196 176 176 206 211 159 156 161 162 161 159 161 164 165 167 168 171 174 178 182 182
355 354 351 350 348 348 348 347 347 347 344 338 339 340 341 343 336 335 342 359 29 167 148 138 174 184 268 272 285 302 292 263 267 264 245 232 229 220 205 196 196 198 198 205 206 207 212 207 204 226 240 252 240 231 250 279 282 242 198 248 246 196 220 246 216 194 192 189 187 199 215 167 154 161 165 166 164 161 161 166 168 170 171 172 174 178 182 182
354 353 351 349 348 348 347 347 347 348 345 339 341 343 346 349 334 334 353 22 10 237 189 153 171 183 255 277 298 308 296 305 304 303 269 234 223 225 211 191 193 195 195 205 206 207 211 201 208 221 223 235 220 180 212 241 245 252 209 229 248 212 198 222 236 213 199 192 196 206 221 186 155 165 168 168 167 163 165 169 171 172 173 174 173 177 182 182
354 352 351 349 348 347 346 347 346 348 347 341 345 348 351 352 333 324 27 31 358 268 219 237 179 171 263 273 295 301 313 326 319 312 292 242 217 220 221 201 186 185 188 201 204 205 203 197 203 214 221 220 209 188 203 218 208 221 220 218 250 232 214 217 221 220 195 197 204 201 221 204 157 167 173 171 170 167 171 173 172 174 174 174 174 177 181 183
353 351 351 350 348 345 344 346 345 348 348 346 355 358 356 357 340 311 156 345 335 283 252 241 188 202 283 278 275 287 303 311 308 303 287 236 209 212 217 214 192 176 179 194 198 197 189 191 199 210 222 213 212 209 206 215 196 207 212 213 242 235 235 234 228 220 179 191 209 199 219 203 161 172 176 172 173 169 172 173 174 177 176 176 176 179 182 183
353 351 351 351 347 343 343 344 344 349 352 353 2 4 359 3 359 325 319 303 272 248 251 244 221 244 276 285 281 293 311 306 291 291 289 252 199 191 204 208 190 178 186 190 188 189 180 195 218 217 216 209 214 216 203 223 242 235 224 225 240 237 239 241 237 230 179 183 211 205 218 201 165 174 174 169 173 171 173 176 179 182 179 179 178 181 184 186
353 352 351 350 346 343 342 343 346 353 355 359 8 14 11 11 1 326 324 300 275 246 241 247 235 240 255 263 274 304 334 312 291 284 284 268 204 175 188 186 184 195 193 183 174 177 180 212 227 219 211 205 208 213 206 220 243 249 239 235 243 238 241 243 241 234 184 186 215 207 217 203 170 175 171 166 172 176 178 179 183 184 181 181 180 181 184 187
353 352 351 349 346 342 341 344 350 356 358 4 13 28 10 359 346 327 326 306 297 278 231 247 241 241 249 252 265 286 309 282 291 285 274 261 207 186 184 183 192 203 187 178 175 177 198 227 228 210 194 200 199 204 209 219 234 245 246 243 247 241 258 264 256 245 199 195 213 204 212 202 173 176 170 167 174 180 183 184 184 183 180 181 181 181 182 182
353 352 351 350 346 343 341 346 356 1 359 358 354 358 350 341 339 334 330 289 298 300 241 247 239 239 249 253 260 263 248 244 262 271 262 242 209 193 192 194 195 205 187 183 187 182 203 229 218 192 186 201 202 200 203 216 228 235 240 235 244 240 242 260 259 256 224 219 205 195 206 201 172 175 173 174 179 182 187 188 185 181 179 179 181 181 180 180
352 352 351 349 347 344 342 345 359 0 353 349 340 345 344 335 337 340 332 239 290 299 272 237 217 231 247 252 251 228 231 231 226 254 251 213 200 192 200 200 192 210 201 189 193 201 219 222 173 182 201 202 204 204 198 207 220 229 235 229 237 239 232 239 253 290 300 267 218 183 198 212 171 171 181 183 183 187 191 190 188 186 182 177 178 180 179 181
352 351 350 349 347 344 342 348 356 351 344 343 343 339 339 333 334 340 337 292 294 273 251 215 172 254 263 236 221 207 237 239 224 241 240 203 211 196 198 204 195 212 206 191 194 212 232 213 158 183 204 204 209 211 199 199 206 224 233 229 231 239 242 245 254 285 308 292 249 183 185 236 186 175 183 185 186 193 194 191 189 188 183 177 176 179 182 183
353 351 350 348 346 345 348 356 343 342 337 329 338 336 334 331 330 334 350 357 303 262 289 8 242 349 355 315 219 192 257 263 230 233 240 242 247 215 196 204 207 213 201 191 197 217 226 208 175 187 196 203 212 217 207 198 196 219 225 228 231 237 249 254 256 251 234 262 260 201 185 214 214 185 184 184 188 192 192 195 193 185 179 180 180 180 182 183
352 351 350 346 345 348 349 321 332 339 331 319 334 333 329 327 327 329 24 54 306 297 351 353 310 353 352 326 306 148 213 275 227 225 227 227 241 258 220 200 200 214 184 180 213 211 200 199 198 197 196 202 210 215 208 197 202 217 210 221 233 237 245 251 253 243 240 268 290 253 202 196 208 196 187 185 189 190 190 197 195 185 181 183 184 183 182 183
350 350 349 346 344 346 334 316 326 328 319 323 328 329 325 323 323 329 90 40 312 350 17 337 331 346 340 327 321 162 257 303 294 246 218 210 212 243 240 207 197 214 189 195 214 188 187 200 204 204 202 203 209 210 202 200 216 218 187 206 228 239 246 251 251 251 262 287 294 276 223 211 228 206 186 185 188 188 191 195 192 187 187 186 186 185 184 185
348 348 348 345 340 340 330 321 313 311 327 329 328 328 323 319 323 46 92 309 346 26 2 338 343 337 336 338 356 37 312 311 314 303 222 204 201 204 247 215 196 217 214 217 221 184 187 200 199 208 215 208 210 211 197 201 218 216 200 210 219 232 245 248 239 243 255 256 258 252 206 221 261 226 185 182 186 188 193 196 190 188 189 188 188 187 185 185
347 346 347 344 339 335 328 320 314 322 331 329 327 327 322 318 14 71 47 278 354 6 349 357 351 338 342 343 349 0 340 324 337 332 291 212 203 205 240 226 204 224 232 231 229 221 224 202 192 207 221 209 199 207 202 204 209 202 209 230 235 235 247 251 228 215 231 240 248 242 205 209 263 256 201 183 185 187 189 194 192 191 192 192 190 185 184 185
346 346 345 344 339 329 319 314 322 329 329 326 326 329 329 357 72 91 47 307 323 351 359 358 348 345 351 345 339 351 345 343 1 356 335 275 206 197 210 215 210 217 236 247 237 230 236 228 202 203 214 205 192 204 204 204 205 198 196 214 238 259 270 265 225 179 210 234 247 228 195 203 239 257 232 203 195 188 184 187 189 193 195 194 192 186 185 186
346 346 342 342 334 317 299 299 320 329 330 328 329 337 15 38 42 153 317 327 321 353 2 347 344 345 341 338 345 350 345 347 1 2 347 324 262 200 199 200 193 205 226 237 235 227 227 231 228 214 211 203 200 206 202 202 202 201 198 191 206 226 237 240 222 201 208 229 245 205 176 209 232 236 233 225 214 193 186 187 185 190 194 192 192 189 186 185
346 346 341 337 325 306 297 306 323 331 328 330 335 7 71 67 52 331 330 349 337 341 350 338 336 335 329 336 359 353 348 4 4 360 351 343 341 240 215 208 186 196 215 209 210 226 226 231 228 226 220 200 202 204 190 201 197 194 201 186 185 198 207 222 231 233 204 221 241 199 175 225 238 240 232 222 219 192 187 190 184 186 191 190 192 188 183 184
346 348 343 333 317 305 306 316 329 329 323 333 356 36 52 84 19 356 343 317 307 332 342 337 330 329 335 351 13 13 11 12 6 1 353 353 359 3 298 242 208 215 231 198 199 212 224 234 220 221 218 178 203 208 182 183 191 200 201 185 192 196 191 200 206 209 199 225 246 201 188 204 188 226 228 213 220 189 177 190 188 189 191 188 189 184 180 184
345 350 352 344 330 328 327 323 328 331 332 354 24 33 59 139 300 349 335 316 333 340 338 339 337 341 359 358 10 25 27 358 360 1 3 359 352 9 0 340 1 2 334 261 242 217 226 238 211 212 216 189 206 210 180 173 189 202 195 190 209 195 165 179 201 189 156 173 239 212 208 203 186 245 252 221 244 202 170 180 188 195 196 186 183 183 182 185
346 352 360 8 7 357 344 332 326 323 347 42 34 8 157 188 264 309 329 351 348 334 336 349 358 356 359 353 351 7 6 353 1 3 2 349 338 17 19 11 24 27 26 1 293 268 234 237 204 198 215 215 214 205 187 184 180 187 196 203 203 168 151 189 246 243 125 163 237 234 238 276 268 263 265 235 254 234 170 174 183 192 192 183 182 186 188 186
345 346 342 355 8 356 348 344 331 318 352 76 54 286 259 221 47 348 331 5 341 335 349 356 9 7 353 348 346 355 355 359 10 6 350 330 341 28 19 8 26 25 16 358 276 303 327 266 240 215 214 215 214 212 207 194 165 165 200 195 152 129 162 174 209 270 156 184 254 251 233 259 233 244 261 225 227 245 192 175 182 188 184 181 186 190 190 189
337 331 314 338 358 352 350 349 331 313 75 81 292 266 271 206 48 350 324 13 353 356 15 349 6 20 357 344 342 352 358 4 8 1 348 330 356 36 26 0 10 13 0 350 313 324 342 303 266 245 226 213 204 208 221 207 188 185 189 169 146 170 198 177 179 206 186 188 263 270 236 225 205 227 265 223 216 234 217 179 180 184 181 183 188 190 192 191
338 329 310 356 355 352 351 345 325 315 96 59 265 258 293 209 7 344 4 36 20 10 1 334 8 17 349 340 342 354 1 357 356 353 349 347 343 27 37 11 344 357 357 349 338 324 327 317 278 267 256 235 200 196 215 215 202 188 165 163 173 186 184 174 179 175 163 184 219 247 243 235 228 216 225 228 219 220 214 184 178 183 182 185 188 190 193 191
344 332 270 354 355 351 349 343 340 87 93 228 208 240 337 4 345 346 25 43 44 51 353 334 346 355 347 346 347 359 0 349 354 350 334 352 343 0 37 23 345 347 350 344 341 333 334 356 294 294 310 293 218 196 207 210 204 186 170 178 185 171 147 173 212 167 147 160 183 194 233 246 243 216 219 227 221 217 213 191 181 185 182 184 188 189 190 188
333 323 287 349 354 349 348 1 36 23 325 255 282 317 1 8 330 343 34 33 27 98 50 358 352 356 3 3 358 359 357 348 355 346 320 352 357 348 20 14 352 346 344 342 357 349 344 357 296 296 328 299 255 234 212 206 205 191 176 184 187 169 142 178 229 225 171 163 168 176 222 254 245 216 217 224 218 217 216 197 181 183 182 183 188 189 187 186
330 325 302 344 354 346 349 64 22 348 15 3 355 355 2 358 336 352 25 22 8 49 48 17 6 10 16 10 358 347 343 348 12 351 312 329 337 323 345 355 352 351 344 332 339 332 317 303 267 271 281 264 265 273 241 213 209 197 181 182 187 175 156 181 211 209 190 203 197 172 215 266 255 207 203 221 220 216 215 201 177 176 181 184 189 190 185 184
346 310 304 342 351 344 357 77 6 2 20 353 355 3 0 355 356 1 359 357 5 20 27 25 14 14 16 5 347 327 326 359 67 343 312 317 323 320 332 346 349 348 343 334 334 328 324 339 310 292 287 269 267 278 276 237 210 200 196 178 184 192 182 179 186 173 184 205 207 206 244 269 270 224 200 221 225 217 211 195 170 169 180 185 189 190 185 184
309 292 294 341 348 350 43 55 357 358 354 348 355 2 4 359 356 354 343 345 22 46 26 27 16 0 342 340 328 318 336 64 114 305 314 312 310 317 328 340 342 338 330 324 328 331 333 348 349 324 310 285 268 273 293 263 216 206 205 190 193 196 182 155 143 157 194 208 192 187 230 253 269 290 284 233 216 209 199 178 164 167 179 188 189 189 184 181
305 283 269 336 347 3 61 42 4 355 346 350 352 355 2 353 346 350 341 342 37 53 25 8 357 338 323 331 332 333 10 111 171 277 288 298 303 312 324 331 331 318 294 300 314 318 306 293 299 309 286 248 238 227 256 302 277 244 211 196 194 188 178 164 131 156 204 215 192 188 223 259 284 317 322 268 188 184 173 160 164 170 176 184 186 186 184 180
334 334 311 333 347 13 46 24 23 14 349 349 345 349 354 339 334 353 351 355 9 6 15 21 351 334 329 348 351 339 341 344 320 325 282 302 306 301 319 324 317 307 308 330 341 334 281 279 261 249 257 266 273 274 285 306 305 282 240 203 188 181 181 174 147 170 188 180 193 210 220 250 282 302 310 299 158 159 151 146 159 171 175 178 179 181 184 180
11 1 346 344 332 351 10 10 11 360 342 345 333 328 345 344 347 356 355 354 347 341 354 31 355 343 337 343 347 332 329 327 328 327 300 306 303 301 319 314 298 318 354 4 352 335 291 300 279 261 272 281 282 280 282 285 275 276 268 218 190 181 181 178 183 193 163 145 207 234 222 227 255 271 272 253 143 138 140 148 160 171 174 175 176 179 182 180
354 11 20 14 330 341 352 334 329 328 332 345 332 318 347 359 2 356 346 339 337 341 354 348 348 350 339 338 340 315 325 330 322 315 308 305 309 318 323 301 291 356 10 358 342 347 322 285 285 298 304 296 286 277 272 266 251 262 273 224 193 184 186 187 195 192 158 156 210 225 215 215 230 247 250 240 183 156 151 158 162 166 172 173 173 178 182 181
340 286 3 25 358 317 304 295 304 318 329 337 327 329 353 0 356 349 341 333 329 338 350 342 349 347 332 332 345 315 327 336 313 306 304 296 314 330 332 305 303 2 1 345 342 360 328 274 301 320 311 296 288 283 284 290 271 274 290 229 191 189 195 188 184 190 177 184 202 194 197 216 224 222 230 238 213 153 118 129 150 156 165 169 171 177 182 182
27 192 329 356 324 291 278 285 308 320 318 316 305 324 347 348 344 340 332 318 312 323 345 341 336 334 327 334 339 305 322 322 291 296 302 296 307 327 346 315 308 331 341 339 338 345 336 302 315 324 312 291 292 311 331 333 305 284 312 281 195 192 199 192 182 186 194 206 197 165 180 225 254 230 179 127 80 84 75 79 140 159 164 166 171 177 180 181
260 254 301 328 311 303 294 296 313 307 297 303 308 327 337 331 333 337 321 297 304 326 333 324 317 317 325 335 320 298 318 316 296 301 304 293 283 227 170 238 281 310 327 329 322 322 316 304 311 326 319 288 306 335 335 324 308 289 344 345 222 192 192 198 182 159 182 212 167 130 171 230 262 79 83 72 71 80 84 83 103 150 165 169 171 174 176 179
264 279 278 234 291 299 298 298 307 298 284 309 324 330 330 318 329 355 341 308 323 330 319 313 316 326 324 314 306 303 313 310 299 299 296 284 269 236 208 216 236 261 285 299 307 302 284 293 312 331 321 284 306 331 322 315 332 3 20 0 321 193 133 119 145 81 19 292 151 161 200 218 191 121 94 74 66 68 64 61 83 121 147 161 165 165 171 178